Flag Weather past 2 weeks in Dublin, Ireland

Now
34 °F

Passing clouds.


Feels Like: 27 °F
Forecast: 37 / 44 °F
Wind: 8 mph from West

Location: Dublin Airport

Current Time: Nov 23, 2014 at 6:00:38 AM

Latest Report: Nov 23, 2014 at 5:30 AM


Visibility: N/A

Pressure: 30.07 "Hg

Humidity: 100%

Dew point: 34 °F

Location of DublinLocation

Historic Weather in Dublin — Graph

°F

Dublin temperature yesterday

Maximum temperature yesterday: 54 °F (at 12:00 AM)
Minimum temperature yesterday: 39 °F (at 10:00 PM)
Average temperature yesterday: 48 °F

Past Weeks' High & Low Weather Summary

 TemperatureHumidityPressure
High55 °F (Nov 21, 10:00 PM)100% (Nov 8, 9:00 AM)30.24 "Hg (Nov 8, 9:00 AM)
Low36 °F (Nov 10, 7:00 AM)67% (Nov 14, 2:30 PM)29.00 "Hg (Nov 14, 5:30 AM)
Average48 °F91%29.57 "Hg
* Reported Nov 8 5:00 AM — Nov 23 5:00 AM, Dublin, Weather by CustomWeather, © 2014

Note: Actual official high and low records may vary slightly from our data, if they occured in-between our weather recording intervals... More about our weather records

Advertising

Dublin weather history for previous 24 hours

 ConditionsComfort  
Time TempWeatherWind HumidityBarometerVisibility
5:00 AM
Nov 23
36 °FPassing clouds.5 mph93%30.07 "HgN/A
4:30 AM36 °FPassing clouds.5 mph93%30.07 "HgN/A
4:00 AM36 °FPassing clouds.5 mph93%30.07 "HgN/A
3:30 AM36 °FPassing clouds.6 mph93%30.07 "HgN/A
3:00 AM36 °FPassing clouds.7 mph100%30.07 "HgN/A
2:30 AM37 °FPassing clouds.8 mph93%30.07 "HgN/A
2:00 AM37 °FPassing clouds.7 mph93%30.07 "HgN/A
1:30 AM37 °FPassing clouds.8 mph93%30.07 "HgN/A
1:00 AM37 °FPassing clouds.9 mph93%30.04 "HgN/A
12:30 AM39 °FPassing clouds.8 mph93%30.04 "HgN/A
12:00 AM39 °FPassing clouds.10 mph93%30.04 "HgN/A
11:30 PM
Nov 22
39 °FPassing clouds.9 mph93%30.04 "HgN/A
11:00 PM39 °FPassing clouds.8 mph93%30.04 "HgN/A
10:30 PM39 °FPassing clouds.10 mph93%30.04 "HgN/A
10:00 PM39 °FPassing clouds.10 mph93%30.01 "HgN/A
9:30 PM41 °FPassing clouds.9 mph87%30.01 "HgN/A
9:00 PM41 °FPassing clouds.12 mph93%29.98 "HgN/A
8:30 PM41 °FPassing clouds.14 mph93%29.98 "HgN/A
8:00 PM43 °FPassing clouds.14 mph87%29.98 "HgN/A
7:30 PM43 °FPassing clouds.9 mph87%29.95 "HgN/A
7:00 PM43 °FPassing clouds.8 mph87%29.95 "HgN/A
6:30 PM45 °FPassing clouds.9 mph87%29.95 "HgN/A
6:00 PM45 °FPassing clouds.12 mph87%29.92 "HgN/A
5:30 PM46 °FPassing clouds.15 mph87%29.89 "HgN/A
5:00 PM46 °FPassing clouds.13 mph87%29.89 "HgN/A
4:30 PM46 °FPassing clouds.14 mph87%29.89 "HgN/A
4:00 PM46 °FScattered clouds.10 mph87%29.86 "HgN/A
3:30 PM48 °FPassing clouds.8 mph87%29.86 "HgN/A
3:00 PM50 °FPassing clouds.12 mph82%29.86 "HgN/A
2:30 PM50 °FPassing clouds.13 mph82%29.83 "HgN/A
2:00 PM50 °FPassing clouds.15 mph82%29.83 "HgN/A
1:30 PM50 °FScattered clouds.16 mph82%29.83 "HgN/A
1:00 PM50 °FScattered clouds.13 mph88%29.83 "HgN/A
12:30 PM50 °FScattered clouds.13 mph88%29.80 "HgN/A
12:00 PM50 °FScattered clouds.12 mph88%29.80 "HgN/A
11:30 AM50 °FScattered clouds.12 mph94%29.77 "HgN/A
11:00 AM50 °FDrizzle. Broken clouds.10 mph94%29.77 "HgN/A
10:30 AM50 °FSprinkles. Scattered clouds.12 mph94%29.77 "HgN/A
10:00 AM50 °FBroken clouds.13 mph94%29.74 "HgN/A
9:30 AM50 °FBroken clouds.12 mph94%29.74 "HgN/A
9:00 AM50 °FScattered clouds.10 mph88%29.71 "HgN/A
8:30 AM50 °FSprinkles. Scattered clouds.12 mph88%29.71 "HgN/A
8:00 AM48 °FPassing clouds.10 mph94%29.68 "HgN/A
7:30 AM48 °FPassing clouds.12 mph94%29.68 "HgN/A
7:00 AM50 °FPassing clouds.14 mph94%29.65 "HgN/A
6:30 AM50 °FPassing clouds.13 mph94%29.65 "HgN/A
6:00 AM52 °FPassing clouds.9 mph94%29.65 "HgN/A
Weather by CustomWeather, © 2014

See weather overviewHow to use our weather pages